FW4586 Weather Reports


time (UTC)temp
C
wind
direction
speed
KPH
gust
KPH
rain 1hr
cm
rain 24hr
cm
rain mn
cm
humidity
%
barometer
mb
20260505051538 6 179 24.1 30.6 0.00 0.46 0.00 85 1006.0
20260505041531 6 174 22.5 37.0 0.00 0.46 0.00 82 1005.6
20260505040024 6 218 22.5 33.8 0.00 0.46 0.00 82 1005.6
20260505034523 7 247 17.7 43.5 0.00 0.46 0.00 80 1005.5
20260505033021 7 220 20.9 40.2 0.00 0.46 0.00 80 1005.2
20260505031518 6 231 25.7 38.6 0.00 0.46 0.00 81 1005.0
20260505030013 6 216 19.3 37.0 0.00 0.46 0.46 81 1004.9
20260505024532 6 249 19.3 38.6 0.00 0.46 0.46 81 1004.6
20260505023010 6 267 22.5 45.1 0.00 0.46 0.46 82 1004.3
20260505021508 6 221 27.4 38.6 0.00 0.46 0.46 81 1004.2
20260505020007 7 236 29.0 43.5 0.00 0.46 0.46 79 1004.0
20260505014507 7 257 32.2 57.9 0.00 0.46 0.46 75 1003.8
20260505013015 7 221 33.8 51.5 0.00 0.46 0.46 74 1003.6
20260505011502 8 240 27.4 48.3 0.00 0.46 0.46 72 1003.4
20260505010003 7 219 25.7 43.5 0.00 0.53 0.46 71 1003.3
20260505004502 8 221 25.7 41.8 0.00 0.53 0.46 69 1003.3
20260505003100 8 241 22.5 51.5 0.00 0.53 0.46 68 1003.4
20260505001559 7 262 25.7 43.5 0.00 0.53 0.46 68 1003.0
20260505000107 7 233 29.0 43.5 0.00 0.53 0.46 68 1002.8
20260504234619 7 223 19.3 37.0 0.00 0.61 0.46 69 1002.3
20260504233053 7 216 17.7 30.6 0.00 0.61 0.46 69 1002.3
20260504231601 6 226 14.5 32.2 0.00 0.61 0.46 67 1002.1
20260504230050 7 212 19.3 37.0 0.00 0.61 0.46 66 1002.1
20260504224550 7 224 17.7 29.0 0.00 0.86 0.46 65 1002.0
20260504223049 7 244 19.3 33.8 0.00 0.86 0.46 64 1002.0
20260504221557 8 176 16.1 27.4 0.00 0.86 0.46 64 1002.0
20260504220046 8 214 19.3 37.0 0.00 0.86 0.46 65 1001.7
20260504214545 8 221 20.9 33.8 0.00 1.09 0.46 63 1001.5
20260504213043 8 231 20.9 38.6 0.00 1.09 0.46 62 1001.5
20260504211548 8 231 20.9 41.8 0.00 1.09 0.46 65 1001.4
20260504210100 8 238 24.1 51.5 0.00 1.09 0.46 66 1001.0
20260504204546 8 234 22.5 45.1 0.00 1.24 0.46 66 1000.9
20260504203037 8 224 25.7 41.8 0.00 1.24 0.46 68 1000.5
20260504201532 8 193 24.1 45.1 0.00 1.24 0.46 71 1000.6
20260504200032 8 277 24.1 41.8 0.00 1.24 0.46 71 1000.3
20260504194542 7 241 29.0 37.0 0.00 1.37 0.46 74 1000.1
20260504193028 7 272 19.3 32.2 0.00 1.37 0.46 79 999.9
20260504191529 7 231 19.3 40.2 0.00 1.37 0.46 80 999.8
20260504190023 6 250 24.1 35.4 0.00 1.37 0.46 80 999.8
20260504184525 7 221 16.1 37.0 0.00 1.37 0.46 79 999.6
20260504183019 6 243 17.7 29.0 0.00 1.37 0.46 80 999.4
20260504181514 6 246 17.7 33.8 0.00 1.37 0.46 81 999.5
20260504180014 5 260 20.9 37.0 0.00 1.37 0.46 85 999.4
20260504174509 5 240 17.7 29.0 0.00 1.37 0.46 87 999.0
20260504173014 5 257 16.1 29.0 0.00 1.37 0.46 87 998.7
20260504171505 5 261 20.9 32.2 0.00 1.37 0.46 88 998.4
20260504081517 2 257 8.0 14.5 0.05 1.14 0.23 96 977.2